Retour au catalogue

SL-6 R/B(2)

ActifHEO
NORAD 10155·ROCKET BODY·🇷🇺 Russia

Lancé Jun 24, 1977 depuis Baikonur Cosmodrome

Loading…

Prochains Passages (prochaines 24 heures)

TLE

FraisSource: Space-Track

Époque: Sep 14, 2026, 04:18 UTC

1 10155U 77054D   26257.17943180  .00000130  00000-0  00000-0 0  9994
2 10155  64.1881 192.9492 6507859 276.2205  18.5665  2.48958989120974

Suivez SL-6 R/B(2) en temps réel avec AllMySat

Download on the App Store